Regional Weather Roundup
Issued by NWS

Home | Current Version | Previous Version | Text Only | Print | Product List | Glossary Off
Versions: 1 2 3 4 5 6 7 8 9 10 11 12 13 14 15 16 17 18 19 20 21 22 23 24 25 26 27 28 29 30 31 32 33 34 35 36 37 38 39 40 41 42 43 44 45 46 47 48 49 50

000
ASUS43 KFSD 310402
RWRSD

WEATHER ROUNDUP FOR SOUTH DAKOTA
NATIONAL WEATHER SERVICE SIOUX FALLS SD
1100 PM CDT TUE AUG 30 2016

NOTE: "FAIR" INDICATES FEW OR NO CLOUDS BELOW 12,000 FEET WITH NO
SIGNIFICANT WEATHER AND/OR OBSTRUCTIONS TO VISIBILITY.


SDZ001>005-009-010-012>017-310500-
NORTHWEST AND NORTH CENTRAL SOUTH DAKOTA

CITY           SKY/WX    TMP DP  RH WIND       PRES   REMARKS
BUFFALO          N/A     71  59  65 SE15      30.09F
MOBRIDGE       CLEAR     69  60  73 E10       30.14S
$$

SDZ012>016-024>037-041>051-057-063-072>074-310500-
SOUTHWEST AND SOUTH CENTRAL SOUTH DAKOTA

CITY           SKY/WX    TMP DP  RH WIND       PRES   REMARKS
RAPID CTY ARPT CLEAR     66  59  78 E7        30.19S
PIERRE         PTCLDY    68  59  73 E8        30.14F
CUSTER         CLEAR     68  50  52 SE7       30.35S
ELLSWORTH AFB  CLEAR     69  61  74 CALM      30.19S
PHILIP         CLEAR     69  63  81 E5        30.16S
PINE RIDGE     CLEAR     67  59  75 CALM      30.22R
WINNER         FAIR      73  63  70 S12       30.18S
$$

SDZ004>011-016>023-039-040-310500-
NORTHEAST SOUTH DAKOTA

CITY           SKY/WX    TMP DP  RH WIND       PRES   REMARKS
ABERDEEN       PTCLDY    67  55  65 E6        30.18F
WATERTOWN      PTCLDY    66  59  78 S3        30.22S
SISSETON         N/A     59  56  89 CALM      30.20R
$$

SDZ017-020-022-023-036>040-048>070-310500-
SOUTHEAST SOUTH DAKOTA

CITY           SKY/WX    TMP DP  RH WIND       PRES   REMARKS
SIOUX FALLS    PTCLDY    68  63  84 CALM      30.20S
HURON          MOCLDY    71  61  70 E10       30.17S
CHAMBERLAIN    CLEAR     74  70  85 SE8       30.17R
MITCHELL       CLEAR     70  67  90 E8        30.17F
YANKTON        PTCLDY    72  66  83 E5        30.18S
$$

ABBREVIATIONS USED IN REMARKS
   TC - TEMPERATURE IN CELSIUS
  WCI - WIND CHILL INDEX
   HX - HEAT INDEX
  VSB - VISIBILITY





USA.gov is the U.S. government's official web portal to all federal, state and local government web resources and services.